Regional Weather Roundup
Issued by NWS

Home | Current Version | Previous Version | Text Only | Print | Product List | Glossary On
Versions: 1 2 3 4 5 6 7 8 9 10 11 12 13 14 15 16 17 18 19 20 21 22 23 24 25 26 27 28 29 30 31 32 33 34 35 36 37 38 39 40 41 42 43 44 45 46 47 48 49 50
000
ASUS45 KABQ 271210
RWRNM
WEATHER ROUNDUP FOR NEW MEXICO
NATIONAL WEATHER SERVICE ALBUQUERQUE NM
600 AM MDT MON APR 27 2015

NOTE: "FAIR" MEANS FEW OR NO CLOUDS BELOW 12,000 FEET AGL WITH NO
       SIGNIFICANT WEATHER OR OBSTRUCTIONS TO VISION.

      THIS PRODUCT IS RELEASED AS TWO VERSIONS.  ONE VERSION NEAR
      THE TOP OF THE HOUR CONTAINING PRELIMINARY DATA FROM ALBUQUERQUE
      AND OTHER STATIONS.  A FINAL VERSION WITH ADDITIONAL DATA IS
      ISSUED ABOUT 10 MINUTES AFTER THE HOUR.

NMZ501-503-504-510>518-271300-
NORTHWEST PLATEAU/NORTHCENTRAL MOUNTAINS

CITY           SKY/WX    TMP DP  RH WIND       PRES   REMARKS
FARMINGTON     CLEAR     36  34  92 NE5       29.96R WCI  32
6HR MIN TEMP:  36; 6HR MAX TEMP:  44;

LOS ALAMOS     CLOUDY    38  34  84 N20G25    29.97F WCI  28
SANTA FE       CLOUDY    39  36  89 N12       29.96R WCI  32
6HR MIN TEMP:  38; 6HR MAX TEMP:  42; 6HR PCP:  0.11;

TAOS           MOCLDY    36  28  75 E3        30.00R
ANGEL FIRE     LGT SNOW  32  31  98 N5          N/A  WCI  27

$$
NMZ402-403-502-505>509-271300-
WESTCENTRAL MOUNTAINS/SOUTHWEST MOUNTAINS

CITY           SKY/WX    TMP DP  RH WIND       PRES   REMARKS
GALLUP         CLOUDY    43  38  82 NE12      29.97R
6HR MIN TEMP:  42; 6HR MAX TEMP:  43; 6HR PCP:  0.01;

GRANTS         CLOUDY    39  39 100 CALM      29.98R
SILVER CITY      N/A     39  36  87 NW13      29.92S WCI  32

$$
NMZ407-409-411-412-271300-
SOUTHERN DESERTS

CITY           SKY/WX    TMP DP  RH WIND       PRES   REMARKS
LORDSBURG      FAIR      37  36  93 W5        29.91S WCI  34
DEMING         PTCLDY    41  37  86 SW8       29.90R
6HR MIN TEMP:  41; 6HR MAX TEMP:  47;

LAS CRUCES     CLOUDY    46  37  70 NW9       29.88S
HOLLOMAN AFB   CLOUDY    47  43  85 N7        29.85R
ALAMOGORDO     MOCLDY    48  43  81 NW8       29.86S
T OR C         CLOUDY    45  41  86 N3        29.89R
6HR MIN TEMP:  44; 6HR MAX TEMP:  50; 6HR PCP:  0.01;


$$
NMZ519>523-271300-
CENTRAL VALLEYS/CENTRAL HIGHLANDS

CITY           SKY/WX    TMP DP  RH WIND       PRES   REMARKS
ALBUQUERQUE    MOCLDY    44  39  82 W7        29.94R
6HR MIN TEMP:  44; 6HR MAX TEMP:  47; 6HR PCP: TRACE;

DOUBLE EAGLE   PTCLDY    39  37  93 N8        29.96R WCI  34
MORIARTY ARPT  PTSUNNY   34  32  91 NE7       29.97R WCI  28
6HR MIN TEMP:  34; 6HR MAX TEMP:  40; 6HR PCP:  0.05;

CLINES CORNERS CLOUDY    34  32  92 NE13      29.95R WCI  25
6HR MIN TEMP:  33; 6HR MAX TEMP:  34; 6HR PCP:  0.23;

BELEN          FAIR      41  39  93 NW6       29.94R
6HR MIN TEMP:  41; 6HR MAX TEMP:  45;

SOCORRO        CLOUDY    43  42  96 CALM      29.92R
6HR MIN TEMP:  43; 6HR MAX TEMP:  45; 6HR PCP:  0.05;


$$
NMZ524>526-539-540-271300-
SOUTHCENTRAL MOUNTAINS

CITY           SKY/WX    TMP DP  RH WIND       PRES   REMARKS
RUIDOSO        CLOUDY    37  36  93 N9        29.93R WCI  31

$$
NMZ527>531-271300-
NORTHEAST HIGHLANDS/NORTHEAST PLAINS

CITY           SKY/WX    TMP DP  RH WIND       PRES   REMARKS
LAS VEGAS      LGT SNOW  32  31  96 N12       29.99R VSB 3/4 WCI  23
6HR MIN TEMP:  32; 6HR MAX TEMP:  34; 6HR PCP:  0.14;

RATON          CLOUDY    39  34  82 N17       29.98R WCI  30
6HR MIN TEMP:  39; 6HR MAX TEMP:  43; 6HR PCP:  0.11;

CLAYTON        LGT RAIN  40  38  93 N23G33    29.96R WCI  30
6HR MIN TEMP:  40; 6HR MAX TEMP:  45; 6HR PCP:  0.26;


$$
NMZ532>537-271300-
EASTCENTRAL PLAINS

CITY           SKY/WX    TMP DP  RH WIND       PRES   REMARKS
TUCUMCARI      RAIN      45  42  89 N20G29    29.92R FOG
6HR MIN TEMP:  45; 6HR MAX TEMP:  49; 6HR PCP:  0.61;

CANNON AFB     CLOUDY    47  45  94 N12       29.86R
6HR MIN TEMP:  47; 6HR MAX TEMP:  50; 6HR PCP:  0.01;

CLOVIS AIRPORT CLOUDY    46  39  76 NE18      29.86R

$$
NMZ028-029-538-271300-
SOUTHEAST PLAINS

CITY           SKY/WX    TMP DP  RH WIND       PRES   REMARKS
ROSWELL        CLOUDY    49  42  77 N15       29.83R
6HR MIN TEMP:  46; 6HR MAX TEMP:  56;

ARTESIA        CLEAR     48  43  81 NW12      29.82R
CARLSBAD       CLEAR     45  34  65 NW8       29.80R
6HR MIN TEMP:  43; 6HR MAX TEMP:  55;

HOBBS          CLOUDY    45  45 100 NW8       29.81R


$$


USA.gov is the U.S. government's official web portal to all federal, state and local government web resources and services.